This is the latest recevied weather packets stored in our database for station/object WO5CID. If no packets are shown the sender has not sent any weather packets the latest 10 day(s).
| Time | Temp. | Humidity | Pressure | Rain* | Wind** | Luminosity | Snow |
|---|---|---|---|---|---|---|---|
| 1778152247 | 19.44° C | 97% | 1014.7 hPa | 0 mm | - | 33 W/m² | - |
| 1778151943 | 19.44° C | 97% | 1014.9 hPa | 0 mm | - | 32 W/m² | - |
| 1778151640 | 18.89° C | 97% | 1014.8 hPa | 0 mm | - | 22 W/m² | - |
| 1778151337 | 18.89° C | 97% | 1014.7 hPa | 0 mm | - | 11 W/m² | - |
| 1778151033 | 18.89° C | 97% | 1015 hPa | 0 mm | - | 6 W/m² | - |
| 1778150731 | 18.89° C | 97% | 1014.8 hPa | 0 mm | - | 3 W/m² | - |
| 1778150427 | 18.89° C | 97% | 1014.8 hPa | 0 mm | - | 2 W/m² | - |
| 1778150123 | 18.89° C | 97% | 1014.4 hPa | 0 mm | - | 1 W/m² | - |
| 1778149820 | 18.89° C | 97% | 1014.7 hPa | 0 mm | - | 0 W/m² | - |
| 1778149517 | 18.89° C | 97% | 1014.7 hPa | 0 mm | - | 0 W/m² | - |
| 1778149212 | 18.89° C | 96% | 1014.7 hPa | 0 mm | - | 0 W/m² | - |
| 1778148908 | 18.89° C | 96% | 1014.8 hPa | 0 mm | - | 0 W/m² | - |
| 1778148605 | 18.89° C | 96% | 1014.5 hPa | 0 mm | - | 0 W/m² | - |
| 1778148302 | 18.89° C | 96% | 1014.5 hPa | 0 mm | - | 0 W/m² | - |
| 1778148000 | 18.89° C | 96% | 1014.5 hPa | 0 mm | - | 0 W/m² | - |
| 1778147698 | 18.89° C | 96% | 1014.3 hPa | 0 mm | - | 0 W/m² | - |
| 1778147394 | 18.89° C | 96% | 1014.3 hPa | 0 mm | - | 0 W/m² | - |
| 1778147090 | 18.89° C | 96% | 1014.5 hPa | 0 mm | - | 0 W/m² | - |
| 1778146788 | 18.89° C | 96% | 1014.1 hPa | 0 mm | - | 0 W/m² | - |
| 1778146485 | 18.89° C | 96% | 1014.4 hPa | 0 mm | - | 0 W/m² | - |
| 1778146183 | 18.89° C | 96% | 1014.1 hPa | 0 mm | - | 0 W/m² | - |
| 1778145879 | 18.89° C | 96% | 1014.2 hPa | 0 mm | - | 0 W/m² | - |
| 1778145576 | 18.89° C | 95% | 1014.3 hPa | 0 mm | - | 0 W/m² | - |
| 1778145273 | 18.89° C | 95% | 1014.3 hPa | 0 mm | - | 0 W/m² | - |
| 1778144968 | 18.89° C | 95% | 1013.9 hPa | 0 mm | - | 0 W/m² | - |
* Rain latest hour (hover to see other rain measurements)
** Current wind speed in m/s (hover to see current wind gust speed)